DateTimeUTC,F1_A11,F1_S11,BsB_S11,BsG_S11,BsR_S11,BbsB_S11,BbsG_S11,BbsR_S11,BaB_A11,BaG_A11,BaR_A11,Tu_S11,T_S11,Uu_S11,U_S11,P_S11,T1_A11
2021-09-08T17:00:00Z,00000200,21000000,,,,,,,-000.02,-000.05,0000.03,18.8,25.5,,00.0,0661.9,31.1
2021-09-08T17:01:00Z,00000200,21000000,,,,,,,-000.08,-000.29,0000.04,18.8,25.6,,00.0,0661.9,31.1
2021-09-08T17:02:00Z,00000200,21000000,,,,,,,-000.09,0000.05,-000.43,18.8,25.6,,00.0,0661.9,31.1
2021-09-08T17:03:00Z,00000200,61000000,,,,,,,-000.10,-000.01,0000.14,18.8,25.6,,00.0,0661.9,31.0
2021-09-08T17:04:00Z,00000200,41000000,0000.22,0000.27,0000.30,0000.02,0000.08,-000.13,-000.28,-000.01,-000.15,19.1,25.5,,00.0,0662.8,31.0
2021-09-08T17:05:00Z,00000200,01000000,0000.37,0000.53,0000.53,0000.39,-000.20,-000.42,0000.15,-000.14,0000.14,19.1,25.4,,00.0,0662.9,31.0
2021-09-08T17:06:00Z,00000200,01000000,0000.58,0000.14,0000.10,0000.03,0000.03,-000.51,0000.24,0000.10,0000.01,19.0,25.4,,00.0,0662.9,31.0
2021-09-08T17:07:00Z,00000200,01000000,0000.63,0000.20,0000.33,0000.26,0000.05,0000.08,-000.05,0000.02,0000.23,19.0,25.4,,00.0,0662.9,31.0
2021-09-08T17:08:00Z,00000200,01000000,0000.71,0000.40,0000.31,-000.03,0000.10,-000.22,0000.00,-000.11,-000.28,18.9,25.4,,00.0,0662.9,31.0
2021-09-08T17:09:00Z,00000200,01000000,0000.77,0000.53,0000.30,0000.66,0000.24,-000.04,-000.05,0000.63,0000.30,18.9,25.3,,00.0,0662.9,31.0
2021-09-08T17:10:00Z,00000200,01000000,0000.67,0000.65,0000.24,0000.77,0000.22,0000.02,0000.35,0000.02,0000.24,18.9,25.3,,00.0,0662.9,31.0
2021-09-08T17:11:00Z,00000200,01000000,0000.36,0000.62,0000.09,0000.38,-000.13,-000.20,0000.35,-000.05,0000.05,18.9,25.3,,00.0,0662.9,31.0
2021-09-08T17:12:00Z,00000200,01000000,0000.42,0000.69,0000.20,0000.03,0000.26,-000.05,0000.17,0000.33,0000.02,18.9,25.3,,00.0,0662.9,31.0
2021-09-08T17:13:00Z,00000200,01000000,-000.27,0000.11,0000.28,-000.46,-000.23,0000.21,0000.23,0000.13,0000.64,19.0,25.3,,00.0,0662.9,31.0
2021-09-08T17:14:00Z,00000200,01000000,0000.38,0000.79,0000.18,0000.40,0000.13,-000.23,0000.14,0000.22,-000.14,19.1,25.4,,00.0,0662.9,31.0
2021-09-08T17:15:00Z,00000200,01000000,-000.13,0000.22,0000.18,-000.04,-000.01,-000.38,-000.04,0000.17,0000.18,19.2,25.4,,00.0,0662.9,31.0
2021-09-08T17:16:00Z,00000200,01000000,-000.11,0000.77,0000.54,-000.09,0000.10,0000.02,0000.23,-000.08,-000.28,19.2,25.4,,00.0,0662.9,31.0
2021-09-08T17:17:00Z,00000200,01000000,0000.91,0000.38,0000.57,0000.41,-000.03,-000.20,0000.32,0000.04,0000.19,19.2,25.4,,00.0,0662.9,31.0
2021-09-08T17:18:00Z,00000200,01000000,0000.43,0000.52,0000.12,0000.20,0000.06,-000.05,-000.27,0000.11,-000.03,19.1,25.4,,00.0,0662.9,31.0
2021-09-08T17:19:00Z,00000200,01000000,0000.77,0000.33,0000.04,0000.22,0000.17,-000.31,-000.17,0000.08,0000.22,19.1,25.4,,00.0,0662.9,31.0
2021-09-08T17:20:00Z,00000200,01000000,0000.38,0000.52,0000.36,0000.32,-000.02,-000.22,0000.26,-000.10,-000.06,19.0,25.4,,00.0,0662.9,31.0
2021-09-08T17:21:00Z,00000200,01000000,0001.58,0000.61,0000.65,0000.11,-000.13,-000.14,0000.24,0000.05,-000.05,19.0,25.4,,00.0,0662.9,31.0
2021-09-08T17:22:00Z,00000200,01000000,0000.62,0000.23,0000.20,0000.83,0000.09,-000.17,0000.07,0000.28,0000.26,18.9,25.3,,00.0,0662.9,31.0
2021-09-08T17:23:00Z,00000200,01000000,0000.64,0000.46,0000.46,0000.43,-000.03,0000.06,0000.19,0000.06,0000.18,18.9,25.3,,00.0,0662.9,31.0
2021-09-08T17:24:00Z,00000200,01000000,0000.20,0000.38,0000.67,-000.01,0000.22,-000.07,0000.14,0000.05,-000.17,18.8,25.3,,00.0,0662.9,31.0
2021-09-08T17:25:00Z,00000200,01000000,0001.34,0000.40,0000.19,0000.13,0000.23,0000.15,0000.13,0000.03,0000.12,18.8,25.2,,00.0,0662.9,31.0
2021-09-08T17:26:00Z,00000200,01000000,0000.26,0000.41,0000.45,-000.17,0000.03,-000.12,0000.13,0000.31,0000.42,18.8,25.2,,00.0,0663.0,31.0
2021-09-08T17:27:00Z,00000200,01000000,0001.35,0000.16,0000.11,0000.42,-000.13,0000.17,-000.04,0000.15,-000.43,18.8,25.2,,00.0,0663.0,31.0
2021-09-08T17:28:00Z,00000200,01000000,0000.53,0000.45,0000.47,0000.08,-000.04,0000.25,-000.04,-000.08,0000.15,18.9,25.2,,00.0,0663.0,31.0
2021-09-08T17:29:00Z,00000200,01000000,0000.96,0000.32,0000.11,-000.33,0000.03,0000.05,0000.30,0000.10,0000.53,18.9,25.2,,00.0,0663.0,31.0
2021-09-08T17:30:00Z,00000200,01000000,0000.26,0000.63,0000.29,0000.00,-000.07,-000.35,0000.33,-000.17,-000.09,18.9,25.2,,00.0,0663.0,31.0
2021-09-08T17:31:00Z,00000200,01000000,0000.61,0000.60,0000.35,0000.61,0000.05,0000.04,-000.31,0000.41,-000.06,18.9,25.2,,00.0,0663.0,31.0
2021-09-08T17:32:00Z,00000200,01000000,0000.32,0000.50,0000.29,-000.01,-000.06,0000.29,0000.29,0000.28,0000.20,18.8,25.2,,00.0,0663.0,31.0
2021-09-08T17:33:00Z,00000200,01000000,0000.93,0000.69,0000.10,0000.37,0000.31,-000.25,0000.36,0000.42,0000.01,18.8,25.2,,00.0,0663.0,31.0
2021-09-08T17:34:00Z,00000200,01000000,0000.61,0000.53,0000.06,0000.13,-000.03,-000.30,0000.08,-000.21,0000.25,18.7,25.2,,00.0,0662.9,31.0
2021-09-08T17:35:00Z,00000200,01000000,0000.32,0000.56,0000.15,0000.37,0000.02,-000.34,0000.05,0000.20,-000.07,18.7,25.1,,00.0,0663.0,31.0
2021-09-08T17:36:00Z,00000200,01000000,0000.45,0000.31,0000.29,-000.36,0000.11,0000.08,0000.11,0000.31,0000.11,18.6,25.1,,00.0,0663.0,31.0
2021-09-08T17:37:00Z,00000200,01000000,0000.31,0000.30,0000.33,-000.07,0000.27,0000.13,-000.23,-000.30,-000.54,18.6,25.1,,00.0,0663.0,31.0
2021-09-08T17:38:00Z,00000200,01000000,0000.37,0000.48,0000.09,0000.40,0000.09,-000.10,0000.57,0000.21,0000.43,18.6,25.1,,00.0,0663.0,31.0
2021-09-08T17:39:00Z,00000200,01000000,0000.10,0000.60,0000.00,-000.19,0000.27,-000.21,-000.41,-000.39,-000.05,18.5,25.0,,00.0,0663.0,31.0
2021-09-08T17:40:00Z,00000200,01000000,0000.61,0000.67,0000.26,-000.25,-000.04,0000.06,0000.49,0000.43,0000.15,18.5,25.0,,00.0,0663.0,31.0
2021-09-08T17:41:00Z,00000200,01000000,0001.16,0000.33,0000.35,0000.01,0000.15,0000.13,0000.47,0000.31,0000.40,18.5,25.0,,00.0,0662.9,31.0
2021-09-08T17:42:00Z,00000200,01000000,0000.45,0000.37,0000.09,0000.25,-000.12,-000.19,-000.02,0000.01,0000.42,18.6,25.0,,00.0,0663.0,31.0
2021-09-08T17:43:00Z,00000200,01000000,0000.85,0000.24,0000.21,-000.11,0000.24,0000.04,0000.18,0000.10,0000.23,18.7,25.0,,00.0,0663.0,31.0
2021-09-08T17:44:00Z,00000200,01000000,0000.19,0000.32,0000.15,-000.33,-000.25,-000.32,-000.09,0000.41,-000.17,18.8,25.1,,00.0,0663.0,31.0
2021-09-08T17:45:00Z,00000200,01000000,0000.98,0000.54,0000.59,-000.07,0000.16,0000.08,0000.26,0000.09,0000.01,18.9,25.1,,00.0,0663.0,31.0
2021-09-08T17:46:00Z,00000200,01000000,0001.11,0000.64,0000.23,-000.07,0000.38,-000.04,0000.26,0000.28,0000.22,19.0,25.2,,00.0,0663.0,31.0
2021-09-08T17:47:00Z,00000200,01000000,0000.23,0000.34,0000.28,0000.20,-000.02,-000.06,0000.38,0000.37,0000.17,19.0,25.2,,00.0,0663.0,31.0
2021-09-08T17:48:00Z,00000200,01000000,0000.78,0000.53,0000.40,-000.25,0000.06,0000.22,-000.27,-000.12,-000.03,19.0,25.2,,00.0,0662.9,31.0
2021-09-08T17:49:00Z,00000200,01000000,0000.76,0000.52,0000.58,0000.57,0000.18,0000.19,0000.14,-000.10,0000.41,18.9,25.2,,00.0,0662.9,31.0
2021-09-08T17:50:00Z,00000200,01000000,0000.93,0000.35,0000.12,-000.52,0000.58,0000.20,0000.21,0000.47,-000.07,18.9,25.2,,00.0,0662.9,31.0
2021-09-08T17:51:00Z,00000200,01000000,0000.78,0000.42,0000.11,-000.33,0000.05,-000.27,0000.13,-000.04,0000.09,18.8,25.2,,00.0,0662.9,31.0
2021-09-08T17:52:00Z,00000200,01000000,0000.36,0000.44,0000.20,-000.46,0000.00,0000.02,-000.10,-000.17,0000.03,18.8,25.2,,00.0,0662.9,31.0
2021-09-08T17:53:00Z,00000200,01000000,0000.60,0000.52,0000.01,0000.32,0000.22,-000.36,0000.22,0000.18,-000.12,18.8,25.1,,00.0,0662.9,31.0
2021-09-08T17:54:00Z,00000200,01000000,0000.73,0000.45,0000.28,-000.01,-000.25,-000.02,0000.32,0000.13,-000.19,18.7,25.1,,00.0,0662.9,31.0
2021-09-08T17:55:00Z,00000200,01000000,0000.06,0000.09,0000.30,-000.24,-000.08,-000.34,-000.11,-000.10,0000.11,18.7,25.1,,00.0,0662.9,31.0
2021-09-08T17:56:00Z,00000200,01000000,0000.08,0000.49,0000.13,0000.03,0000.28,-000.13,0000.23,0000.03,0000.28,18.7,25.1,,00.0,0662.9,31.0
2021-09-08T17:57:00Z,00000200,41000000,,,,,,,0000.06,0000.45,0000.27,18.7,25.1,,00.0,0663.0,31.0
2021-09-08T17:58:00Z,00000200,61000000,,,,,,,0000.08,-000.19,-000.11,18.5,25.3,,00.0,0662.0,31.0
2021-09-08T17:59:00Z,00000200,21000000,,,,,,,-000.28,0000.08,-000.11,18.5,25.4,,00.0,0662.0,31.0
